Location: Roanoke
(37.2710°N, 79.9420°W)
Time: 19:21:34
(UTC-05:00)

Transit 2A - Pass Details

Date: 23 November 2019
Orbit: 602 x 957 km, 66.7° (Epoch: 05 December)

Event Time Altitude Azimuth Distance (km) Brightness Sun altitude
Rises 11:16:14 0° 213° (SSW) 3,247 9.8 31.2°
Reaches altitude 10° 11:18:45 10° 216° (SW) 2,265 9.1 31.3°
Maximum altitude 11:23:51 67° 298° (WNW) 758 6.3 31.5°
Drops below altitude 10° 11:28:30 10° 22° (NNE) 2,070 7.9 31.7°
Sets 11:30:43 0° 25° (NNE) 2,945 8.6 31.7°
